Jones - eastern half: Past 24 Hour Conditions

 

Hall Beach Airport

05:00 PM EDT 24 April 2014
This table is a summary of hourly weather conditions for the past 24 hours.
Date / Time
(EDT)
Wind(knots) Conditions Visibility(km) Pressure(kPa) Air tempC) Relative humidity(%) Dew pointC) Wind Chill
24 April 2014
17:00 NW 8 Ice Crystals 19 102.3 -19 72 -22 -27
16:00 NW 12 Ice Crystals 15 102.2 -18 76 -22 -29
15:00 WNW 18 Ice Crystals 6 102.2 -18 76 -21 -30
14:00 NW 21 Blowing Snow 2 102.2 -19 76 -22 -32
13:00 NW 17 Ice Crystals 13 102.2 -19 75 -22 -31
12:00 WNW 14 Ice Crystals 16 102.2 -19 75 -22 -31
11:00 NW 17 Ice Crystals 19 102.1 -20 76 -23 -32
10:00 WNW 16 Ice Crystals 24 102.1 -20 78 -23 -32
9:00 WNW 18 Ice Crystals 16 102.1 -20 83 -22 -33
8:00 W 10 Partly Cloudy 24 102.1 -19 84 -21 -29
7:00 WSW 8 Mostly Cloudy 16 102.0 -17 85 -19 -26
6:00 SW 9 Light Snow 8 102.0 -19 85 -21 -28
5:00 SW 11 Light Snow 8 102.0 -18 86 -20 -28
4:00 SW 9 Light Snow 16 102.0 -23 83 -25 -33
3:00 SW 11 Clear 16 102.1 -23 82 -25 -35
2:00 SW 10 Light Snow 16 102.1 -22 82 -25 -33
1:00 W 9 Clear 16 102.1 -21 82 -24 -31
0:00 SW 10 Light Snow 16 102.1 -21 84 -23 -31
23 April 2014
23:00 WSW 7 Light Snow 16 102.2 -21 84 -23 -29
22:00 WSW 6 Light Snow 16 102.2 -17 85 -19 -24
21:00 W 5 Light Snow 4 102.2 -16 85 -18 -22
20:00 WNW 9 Partly Cloudy 24 102.2 -17 83 -20 -26
19:00 WNW 9 Mostly Cloudy 24 102.3 -17 80 -19 -25
18:00 WNW 10 Cloudy 24 102.3 -16 79 -19 -26
17:00 WNW 11 Partly Cloudy 24 102.2 -15 77 -19 -25
 
Map of Arctic - Eastern Arctic marine weather areas Baker Lake Airport Chesterfield Inlet Airport Coral Harbour Airport Gjoa Haven Airport Kugaaruk Airport Rankin Inlet Airport Shepherd Bay Airport Whale Cove Airport Arctic Bay Brevoort Island Qikiqtarjuaq Airport Cape Dorset Airport Cape Dyer Cape Hooper Clyde Airport Grise Fiord Airport Hall Beach Airport Igloolik Airport Iqaluit Airport Longstaff Bluff Pangnirtung Airport Pond Inlet Airport Repulse Bay Airport Resolute Airport Resolution Island Rowley Island Airport Taloyoak Airport Wager Bay Akulivik Airport Ivujivik Airport Puvirnituq Airport Kangiqsujuaq Airport Kangirsuk Airport Quaqtaq Airport Tasiujaq Airport Cape Kakkiviak Cape Kiglapait Nain Airport Saglek Cape Mercy Kimmirut Airport Aupaluk Airport Salluit Airport Kangiqsualujjuaq Airport Fort Ross
Legend: buoyBuoy land stationLand Station